Weather History for KMDH - December, 2011

Change the Weather History Date:

Friday, December 30, 2011

  Actual Average Record
Temperature  
Mean Temperature 54 °F -  
Max Temperature 59 °F 41 °F 68 °F (1923)
Min Temperature 46 °F 26 °F -6 °F (1917)
Degree Days  
Heating Degree Days 12    
Growing Degree Days 4 (Base 50)    
Moisture  
Dew Point 40 °F    
Average Humidity 65    
Maximum Humidity 89    
Minimum Humidity 38    
Precipitation  
Precipitation 0.00 in - - ()
Sea Level Pressure  
Sea Level Pressure 29.75 in    
Wind  
Wind Speed 16 mph (WSW)    
Max Wind Speed 24 mph    
Max Gust Speed 36 mph    
Visibility 10 miles    
Events      
Averages and records for this station are not official NWS values.
T = Trace of Precipitation, MM = Missing Value Source: NWS Daily Summary

Daily Weather History Graph

Daily Weather History Graph

Search for Another Location

Airport or City:

Trip Planner

Search our weather history database for the weather conditions in past years. The results will help you decide how hot, cold, wet, or windy it might be!

Date:

Astronomy

Dec. 30, 2011 Rise Set
Actual Time 7:12 AM CST 4:47 PM CST
Civil Twilight 6:42 AM CST 5:16 PM CST
Nautical Twilight 6:09 AM CST 5:49 PM CST
Astronomical Twilight 5:37 AM CST 6:21 PM CST
Moon 10:38 AM CST (12/30) 11:14 PM CST (12/30)
Length of Visible Light 10h 33m
Length of Day
9h 35m
Waxing Crescent, 36% of the Moon is Illuminated
Dec 30
Waxing Crescent
Jan 1
First Quarter
Jan 9
Full
Jan 16
Last Quarter
Jan 23
New

Hourly Weather History & Observations

Time (CST) Temp. Windchill Dew Point Humidity Pressure Visibility Wind Dir Wind Speed Gust Speed Precip Events Conditions
12:52 AM 48.9 °F - 44.1 °F 83% 29.77 in 10.0 mi South 19.6 mph - 0.00 in   Partly Cloudy
1:52 AM 48.0 °F - 44.1 °F 86% 29.75 in 10.0 mi South 12.7 mph - N/A   Partly Cloudy
2:52 AM 50.0 °F - 45.0 °F 83% 29.76 in 10.0 mi SSW 12.7 mph - N/A   Scattered Clouds
3:18 AM 50.0 °F - 46.4 °F 87% 29.74 in 10.0 mi SSW 12.7 mph - N/A   Mostly Cloudy
3:52 AM 50.0 °F - 46.0 °F 86% 29.71 in 10.0 mi SSW 16.1 mph 24.2 mph N/A   Scattered Clouds
4:52 AM 51.1 °F - 46.9 °F 86% 29.68 in 10.0 mi SSW 20.7 mph 29.9 mph N/A   Partly Cloudy
5:24 AM 51.8 °F - 46.4 °F 82% 29.66 in 10.0 mi SSW 23.0 mph 29.9 mph N/A   Mostly Cloudy
5:52 AM 50.0 °F - 46.9 °F 89% 29.66 in 10.0 mi SSW 24.2 mph 31.1 mph N/A   Overcast
6:22 AM 51.8 °F - 46.4 °F 82% 29.67 in 10.0 mi SSW 19.6 mph 35.7 mph N/A   Partly Cloudy
6:52 AM 51.1 °F - 46.0 °F 83% 29.66 in 10.0 mi SSW 24.2 mph 31.1 mph N/A   Partly Cloudy
7:52 AM 50.0 °F - 45.0 °F 83% 29.65 in 10.0 mi SSW 18.4 mph 26.5 mph N/A   Partly Cloudy
8:52 AM 51.1 °F - 45.0 °F 80% 29.67 in 10.0 mi SW 23.0 mph 31.1 mph N/A   Scattered Clouds
9:52 AM 54.0 °F - 42.1 °F 64% 29.69 in 10.0 mi WSW 19.6 mph 28.8 mph N/A   Clear
10:52 AM 55.9 °F - 39.9 °F 55% 29.68 in 10.0 mi WSW 15.0 mph 31.1 mph N/A   Clear
12:52 PM 57.0 °F - 37.9 °F 49% 29.67 in 10.0 mi WSW 15.0 mph 26.5 mph N/A   Overcast
1:52 PM 57.9 °F - 35.1 °F 42% 29.68 in 10.0 mi West 15.0 mph 23.0 mph N/A   Overcast
2:52 PM 59.0 °F - 34.0 °F 39% 29.70 in 10.0 mi West 13.8 mph 25.3 mph N/A   Scattered Clouds
3:52 PM 59.0 °F - 33.1 °F 38% 29.73 in 10.0 mi West 16.1 mph 24.2 mph N/A   Mostly Cloudy
4:52 PM 57.0 °F - 33.1 °F 40% 29.76 in 10.0 mi West 16.1 mph 20.7 mph N/A   Overcast
5:52 PM 55.9 °F - 32.0 °F 40% 29.79 in 10.0 mi West 9.2 mph - N/A   Overcast
6:52 PM 55.0 °F - 33.1 °F 43% 29.83 in 10.0 mi West 8.1 mph - N/A   Overcast
7:52 PM 54.0 °F - 33.1 °F 45% 29.85 in 10.0 mi WNW 6.9 mph - N/A   Overcast
8:52 PM 52.0 °F - 35.1 °F 53% 29.88 in 10.0 mi NW 8.1 mph - N/A   Overcast
9:52 PM 51.1 °F - 34.0 °F 52% 29.90 in 10.0 mi WNW 10.4 mph 21.9 mph N/A   Scattered Clouds
10:52 PM 48.0 °F - 33.1 °F 56% 29.91 in 10.0 mi WNW 11.5 mph 21.9 mph N/A   Clear
11:52 PM 46.0 °F 43.1 °F 33.1 °F 61% 29.93 in 10.0 mi WNW 5.8 mph - N/A   Clear